Weather in Aleko-Kyuel'

Russia / Sakha (Yakutia) Republic     68°40′47″N   151°52′36″E
temp.,
°C
wind,
m/s
gust,
m/s
humid.,
%
clouds,
%
prec.,
mm/h
press.,
hPa
HPBL,
m
9 march, tue
tue923:00−29wnw339161 0.0 100119
02:00−28w339487 0.0 100023
05:00−25w469693 0.0 100099
08:00−25wsw4698100 0.1 1001123
11:00−22w5895100 0.3 1001432
14:00−22w5884100 0.1 1002764
17:00−23wsw71192100 0.1 1002675
20:00−26wsw459696 0.0 100468
10 march, wed
wed1023:00−25wsw469899 0.1 1005112
02:00−27wsw5596100 0.0 100569
05:00−24sw4690100 0.0 1005106
08:00−23s6986100 0.0 1005185
11:00−24ssw71189100 0.0 1005259
14:00−23ssw71185100 0.0 1004346
17:00−23s5108958 0.0 1003192
20:00−25s57922 0.0 100385
11 march, thu
thu1123:00−26s58927 0.0 100299
02:00−25s6108985 0.0 1002180
05:00−25s6118777 0.0 1001192
08:00−25s61087100 0.0 1002199
11:00−24s468887 0.0 1002161
14:00−20ssw348488 0.0 1002160
17:00−21ssw338590 0.0 100322
20:00−20ssw2388100 0.0 100520
12 march, fri
fri1223:00−20nw2296100 0.0 100720
02:00−21ne3394100 0.0 100831
05:00−23nne349699 0.0 100944
08:00−24ne359898 0.1 101183
11:00−22ene459698 0.1 1011256
14:00−23ene4692100 0.0 1011237
17:00−25ne3491100 0.1 101075
20:00−29ne449299 0.0 101137
13 march, sat
sat1323:00−30ne339396 0.0 101123
02:00−31nne349289 0.0 101127
05:00−31nne338889 0.0 101222
08:00−31n238385 0.0 101221
11:00−26n238190 0.0 1012122
14:00−24nnw238480 0.0 1011205
17:00−26n229067 0.0 101019
20:00−30nne228947 0.0 101119